Hourly Weather Roundup
Issued by NWS Central Illinois

Home | Current Version | Previous Version | Text Only | Print | Product List | Glossary On
Versions: 1 2 3 4 5 6 7 8 9 10 11 12 13 14 15 16 17 18 19 20 21 22 23 24 25 26 27 28 29 30 31 32 33 34 35 36 37 38 39 40 41 42 43 44 45 46 47 48 49 50
000
NZUS43 KILX 240710
HWRILX

AREA WEATHER ROUNDUP
NATIONAL WEATHER SERVICE, LINCOLN IL
200 AM CDT FRI MAR 24 2017


CITY           SKY/WX    TMP DP  RH WIND       PRES   REMARKS
BLOOMINGTON    CLOUDY    46  39  76 S17       29.97S
CHAMPAIGN      CLOUDY    50  39  66 S15       29.99F
DECATUR        CLOUDY    49  40  71 S15       29.98F
EFFINGHAM      CLEAR     51  44  75 SE12      30.04F
FLORA          CLEAR     52  45  76 S10       30.05F
GALESBURG      CLOUDY    49  43  79 S13       29.88F
JACKSONVILLE   CLOUDY    50  43  76 S7        29.93F
LACON          PTCLDY    50  41  71 S13G20    29.92F
LAWRENCEVILLE  CLEAR     52  43  71 S12       30.08F
LITCHFIELD     CLOUDY    50  43  77 S14       29.97S
$$


CITY           SKY/WX    TMP DP  RH WIND       PRES   REMARKS
LINCOLN        CLOUDY    46  42  86 S8        29.95F
MACOMB         CLOUDY    49  44  83 S8        29.92F
MATTOON        CLOUDY    50  42  74 S14       30.00F
MT CARMEL AP   CLEAR     54  42  64 S14       30.07F
OLNEY-NOBLE AP CLEAR     48  45  87 SE7       30.05F
PARIS          PTCLDY    53  43  69 S16       30.03F
PEORIA         CLOUDY    46  41  82 S13       29.94F
PONTIAC        PTCLDY    48  41  75 S15       29.96F
RANTOUL        CLOUDY    50  42  74 S10       29.99F
SPRINGFIELD    CLOUDY    50  42  74 S14       29.96F
TAYLORVILLE    CLOUDY    48  43  81 S12       29.97F
$$

...REGIONAL REPORTS...


CITY           SKY/WX    TMP DP  RH WIND       PRES   REMARKS
CHICAGO O`HARE PTCLDY    44  34  67 S12       29.96F
KANKAKEE       CLOUDY    46  37  71 S7        29.99F
MOLINE         PTCLDY    53  43  68 S6        29.88S
MOUNT STERLING CLOUDY    49  44  81 SE9       29.90S
MOUNT VERNON   CLEAR     51  44  77 S7        30.04F
PITTSFIELD     CLOUDY    60  48  65 S13       29.92R
QUINCY         CLOUDY    58  47  66 S9        29.89S
ROCKFORD       CLOUDY    46  37  71 S12       29.95S
$$


CITY           SKY/WX    TMP DP  RH WIND       PRES   REMARKS
BURLINGTON     CLOUDY    54  45  71 S16       29.86F
CEDAR RAPIDS   CLOUDY    43  41  93 SE9       29.83S
DES MOINES     MOCLDY    56  43  61 SE7       29.76S
KIRKSVILLE     CLOUDY    63  32  31 S12       29.84F
OTTUMWA        CLOUDY    54  44  69 S9        29.82S
ST LOUIS       CLOUDY    58  44  60 SE9       29.95F
$$


CITY           SKY/WX    TMP DP  RH WIND       PRES   REMARKS
TERRE HAUTE    CLEAR     56  41  57 S17G25    30.04F
EVANSVILLE     CLEAR     53  42  66 SE5       30.11F
INDIANAPOLIS   CLEAR     52  37  56 S15       30.06F
LAFAYETTE      CLEAR     50  39  66 S6        30.01S
MADISON        CLOUDY    44  35  70 S12       29.89F
MILWAUKEE      MOCLDY    45  34  65 SW13      29.92R
$$






USA.gov is the U.S. government's official web portal to all federal, state and local government web resources and services.